Simultaneous Nadir Overpasses (SNOs) Predictions

Prediction of SNOs between METOP-A and TERRA Satellite Orbit:

Table of predicted SNOs for the next 14.0 days since TLE Epoch: 5/3/2014
Index Date (METOP-A) Time (METOP-A) Lat,Lon (METOP-A) SZA (METOP-A ) Date (TERRA) Time (TERRA) Lat,Lon (TERRA) SZA (TERRA ) Distance(km) Time Diff (sec)
1 05/05/2014 01:31:38 81.28,-156.07 68.03 05/05/2014 01:32:05 81.28,-156.15 68.03 1.34 27
2 05/05/2014 02:22:17 -81.29, 11.94 111.90 05/05/2014 02:21:31 -81.29, 11.78 111.94 2.77 46
3 05/07/2014 21:06:01 81.28, -89.75 67.25 05/07/2014 21:06:23 81.29, -89.56 67.28 3.25 22
4 05/07/2014 21:56:41 -81.28, 77.87 112.73 05/07/2014 21:55:50 -81.28, 78.02 112.74 2.47 51
5 05/10/2014 16:40:24 81.28, -23.07 66.54 05/10/2014 16:40:42 81.29, -23.14 66.54 1.24 18
6 05/1
